Tracking 18843 objects as of 20-November-2017
HD Live streaming from Space Station
objects crossing your sky now

FENGYUN 1C DEB

Track FENGYUN 1C DEB now!
10-day predictions


NORAD ID: 30393
Int'l Code: 1999-025ADG
Perigee: 855.4 km
Apogee: 960.3 km
Inclination: 99.3 °
Period: 103.0 minutes
Semi major axis: 7278 km
RCS: 0.039 m2 (small)
Launch date: May 10, 1999
Source: People's Republic of China (PRC)
Launch site: Taiyaun Space Center, China (TSC)

Note: This is SATELLITE DEBRIS
aabbcc
Your satellite tracking list
Your tracking list is empty




NASA's NSSDC Master Catalog

Two Line Element Set (TLE):
1 30393U 99025ADG 17324.47330534 -.00000040 +00000-0 +40277-5 0  9999
2 30393 099.2989 297.3443 0072113 015.1384 106.1703 13.98005099551827
Source of the keplerian elements: AFSPC